Wind_Speed
9 8 8 8 9 10 12 13 15 16 16 16 16 16 15 15 14 14 13 13 13 13 12 12 11 11 10 10 9 9 9 8 8 8 8 8 8 8 8 8 8 8 9 9 9 9 9 9 9 9 9 9 7 7 8 8 8 8 8 8 8 8 9 9 10 11 13 12 12 12 11 12 16 18 16 16 16 18 19 19 20 20 21 20 21
12 11 11 10 10 10 10 11 13 16 17 18 19 19 19 18 17 17 17 16 16 16 15 15 15 14 14 14 13 13 13 12 12 11 12 12 12 12 11 11 11 11 12 12 13 13 12 12 12 12 13 13 12 11 10 10 11 11 11 11 11 12 12 12 12 12 14 14 13 13 12 12 15 17 16 14 15 18 20 20 18 18 20 20 18
14 14 14 14 13 12 12 12 12 14 16 18 20 20 21 20 20 19 20 19 19 19 18 18 18 18 18 18 17 17 16 16 15 15 15 15 15 15 15 15 15 15 16 16 16 16 16 16 16 16 17 17 17 16 14 14 14 14 15 15 15 15 15 15 15 15 15 15 15 14 13 12 14 16 16 16 17 20 21 19 18 19 21 20 17
16 16 16 16 16 15 15 14 14 14 15 17 18 18 20 20 21 21 22 22 22 21 21 20 21 21 21 21 21 21 20 20 19 19 19 18 18 18 18 18 18 18 19 19 19 19 19 20 20 20 20 21 20 18 18 18 18 17 18 17 17 18 18 17 18 17 17 17 16 15 14 15 15 16 17 17 17 18 18 17 16 18 19 18 17
17 17 17 17 18 18 18 18 17 17 17 17 17 17 17 19 20 21 22 23 23 23 23 23 23 24 25 25 24 24 24 23 23 22 22 22 22 21 21 22 22 22 22 22 22 23 23 24 24 23 24 25 24 22 21 23 24 23 22 21 19 19 19 19 19 18 18 19 18 16 15 15 16 18 19 18 16 15 15 14 14 15 16 15 15
19 19 19 19 19 19 20 20 20 19 19 18 17 17 16 17 18 19 20 22 23 24 24 25 26 26 27 27 27 27 27 26 26 26 26 25 25 25 25 25 25 25 26 26 26 26 26 27 27 27 27 28 28 27 25 26 27 27 27 26 22 20 19 19 19 18 19 19 18 17 16 16 16 17 17 15 14 14 14 14 14 13 13 14 14
20 20 21 21 21 21 21 21 21 21 21 20 19 18 17 17 18 18 19 20 21 23 24 25 26 26 27 28 28 29 29 29 29 29 29 29 29 29 29 29 29 29 29 29 29 29 30 30 30 30 30 31 31 31 29 28 27 28 29 28 24 21 19 19 18 18 18 18 17 18 17 16 16 16 14 13 13 14 14 14 13 12 12 13 14
22 21 21 22 22 23 23 22 22 22 22 21 21 20 19 19 19 19 19 20 21 22 23 24 25 26 26 27 28 29 30 30 31 31 32 31 31 32 32 32 32 32 32 33 32 33 33 33 33 33 34 34 33 33 32 30 27 26 27 26 24 22 20 18 18 18 18 17 17 17 16 15 15 15 13 12 12 13 12 11 12 13 13 14 14
23 23 23 23 22 22 23 24 24 23 23 23 23 22 22 21 21 21 21 21 21 22 22 23 24 25 26 27 28 29 30 31 31 32 33 32 32 33 33 33 34 34 35 35 35 35 35 36 36 36 36 35 35 34 34 33 30 27 25 23 22 21 20 19 18 17 16 16 16 15 15 15 15 14 13 13 12 11 10 10 13 14 14 14 14
23 24 26 26 24 23 23 23 24 25 25 25 24 24 24 23 23 23 22 23 23 23 23 23 24 25 25 26 28 29 30 31 30 31 31 32 32 32 33 34 34 35 35 36 36 37 37 37 37 37 36 36 36 35 35 34 33 32 30 26 22 20 19 18 18 18 16 16 16 15 15 15 15 13 13 12 11 11 10 11 13 13 13 14 13
25 25 26 27 27 26 25 24 24 25 26 27 26 25 25 25 25 25 24 24 24 24 24 25 25 25 26 27 28 29 30 29 28 29 30 30 30 31 32 34 34 35 35 36 37 37 37 37 37 37 36 36 36 36 35 34 33 32 32 30 28 26 22 19 18 17 16 16 16 15 15 16 14 12 12 11 10 10 10 10 12 13 12 12 11
27 27 27 28 28 29 29 27 26 26 27 28 28 28 27 27 27 27 27 26 26 26 26 26 27 27 27 27 28 29 30 28 27 27 28 29 29 29 30 32 33 34 35 36 37 37 37 37 37 37 37 36 35 34 33 33 32 30 30 29 30 30 29 26 22 19 16 16 17 16 16 15 13 12 11 10 9 10 11 11 12 12 12 13 14
29 29 30 29 29 30 31 31 30 29 29 29 30 30 30 29 29 29 29 28 28 28 27 27 28 28 28 28 29 30 31 29 27 26 27 28 27 27 28 30 32 33 35 35 36 36 36 36 36 37 37 35 34 32 32 31 30 29 28 28 29 29 29 29 28 25 21 18 16 16 15 13 12 11 9 8 9 11 12 12 12 13 15 16 16
29 30 31 31 30 30 31 33 34 33 32 31 31 31 32 32 31 30 29 29 30 30 29 29 29 29 29 29 29 31 31 30 27 26 26 27 26 26 28 29 31 33 34 35 35 36 36 35 35 36 36 34 33 31 30 29 28 27 27 27 28 28 27 28 28 28 26 22 19 17 14 12 11 11 10 9 10 11 12 13 14 15 16 15 15
30 31 31 32 31 30 30 32 34 35 35 33 32 33 33 32 32 32 31 30 31 31 30 30 30 30 30 30 30 31 31 30 28 27 27 26 26 25 27 28 31 33 34 35 35 36 36 35 35 35 34 33 32 29 27 26 25 24 24 24 23 23 23 24 24 23 22 21 20 17 13 12 13 13 12 11 11 13 14 15 15 13 13 14 14
31 32 32 33 33 32 31 31 33 35 35 34 34 34 34 33 33 32 31 31 31 31 31 31 31 30 30 29 30 31 31 29 28 27 26 26 25 25 26 28 30 32 34 35 35 35 35 34 34 35 35 34 32 29 27 26 23 22 21 21 20 19 19 21 22 21 21 21 20 17 16 15 16 15 12 11 13 13 11 11 11 11 13 15 17
31 32 33 34 34 34 32 31 31 33 34 34 34 35 35 34 33 32 31 31 31 31 31 31 30 30 29 29 30 30 29 28 27 26 25 25 24 24 26 28 29 32 34 34 34 34 34 34 34 34 34 34 32 30 28 26 25 23 21 19 18 17 18 20 22 23 24 24 22 20 19 17 15 14 14 15 16 13 9 10 12 13 15 15 16
32 33 34 35 35 35 33 31 30 31 31 33 34 35 35 35 34 31 30 29 30 30 30 30 30 29 29 29 28 29 29 27 25 25 24 24 24 25 26 26 28 32 33 33 33 34 34 34 33 33 33 33 31 30 28 26 25 24 21 18 17 16 15 16 20 22 22 22 20 18 17 16 14 13 14 17 19 16 12 12 13 14 16 17 18
33 34 35 35 35 35 34 32 30 30 30 31 33 34 35 35 33 31 29 28 29 30 29 30 30 29 29 28 27 28 29 27 25 25 25 25 25 26 26 26 27 31 32 32 32 33 34 34 33 32 32 31 30 29 27 25 25 23 20 18 17 15 14 15 18 19 18 17 16 14 14 13 11 9 11 15 19 18 17 15 13 13 17 19 17
33 34 34 35 36 35 34 33 31 30 30 31 32 33 33 34 32 29 28 28 29 29 29 29 30 30 29 29 28 29 30 28 26 25 25 26 26 26 26 26 28 31 31 30 31 32 32 33 33 32 31 29 28 28 28 26 24 22 22 21 17 14 14 17 18 17 14 13 13 11 9 8 7 7 9 12 15 16 18 19 17 15 16 17 15
34 33 33 34 35 34 33 33 32 31 30 30 31 31 32 32 31 29 29 28 28 29 30 30 30 30 30 29 29 30 31 30 27 26 27 27 27 26 27 29 31 32 29 28 30 32 32 32 33 31 29 27 27 27 27 25 22 22 23 21 17 16 16 16 16 15 13 12 11 10 8 8 8 8 10 14 15 17 20 21 18 15 14 15 15
33 33 33 34 34 33 31 31 32 31 30 29 29 30 31 31 30 29 28 28 28 30 31 30 29 30 31 31 31 31 31 31 29 28 28 28 28 28 29 31 32 32 29 27 30 33 33 32 32 30 28 26 25 25 24 21 21 24 24 21 19 18 17 15 14 14 13 12 12 12 12 12 11 10 13 17 18 18 19 18 15 14 14 14 14
32 33 34 34 33 32 30 30 30 30 29 28 28 29 29 29 29 28 28 28 28 30 31 31 29 29 31 32 32 32 31 31 30 29 28 29 29 29 30 31 31 31 31 30 32 33 33 32 31 29 27 24 22 22 21 19 20 22 21 19 18 16 15 15 14 14 14 14 14 15 16 16 15 13 14 16 15 13 13 12 12 13 14 15 15
32 33 34 33 33 32 30 30 30 30 29 28 27 27 28 28 28 28 28 27 27 28 30 31 28 28 31 33 33 33 31 31 31 30 29 28 28 28 29 29 30 31 31 33 34 34 33 31 29 27 25 22 21 19 18 19 19 17 15 14 14 14 15 16 15 14 15 15 14 15 16 16 15 15 14 12 10 11 13 14 17 19 19 20 21
31 32 34 33 33 32 31 30 30 30 28 27 26 27 28 27 27 28 28 27 27 27 29 29 29 29 30 30 32 33 31 30 31 30 28 27 26 26 26 27 28 29 30 32 33 33 32 30 27 24 21 19 17 16 17 19 17 14 13 14 16 17 16 16 15 15 15 14 12 13 13 13 13 13 12 11 12 16 19 20 22 24 24 25 25
31 32 34 35 34 32 31 31 31 29 28 27 27 28 28 27 27 28 28 27 27 28 29 30 31 30 27 27 31 32 31 30 30 30 28 27 26 26 25 25 26 27 29 30 30 29 28 26 24 21 17 15 17 19 20 20 18 16 16 17 17 17 16 15 15 15 14 13 12 12 12 11 10 12 14 15 17 19 20 20 21 23 23 22 21
31 32 33 34 34 32 30 30 30 29 28 27 27 27 27 27 27 29 30 29 28 28 30 31 31 27 24 27 30 30 28 29 30 29 28 27 26 26 24 24 25 25 28 29 27 26 25 22 19 18 16 18 21 22 23 22 20 19 18 18 17 16 16 17 16 15 14 12 11 11 11 12 14 16 18 19 19 20 19 18 19 20 18 16 16
30 31 33 33 33 32 31 30 30 29 29 29 28 28 28 28 28 31 33 32 31 30 30 31 31 28 27 28 28 26 27 30 30 28 26 25 25 24 23 23 24 25 27 27 25 23 21 18 16 18 20 22 23 22 22 21 20 19 19 18 17 17 17 17 16 16 15 13 12 12 14 16 17 18 18 18 19 20 19 18 18 17 15 13 14
29 31 32 32 32 32 31 31 30 29 30 30 29 29 29 29 30 32 33 32 32 32 31 30 30 29 28 29 28 26 28 30 28 25 24 23 22 22 21 22 23 24 25 26 23 21 19 19 20 22 23 22 22 21 20 19 19 18 18 17 17 17 17 16 15 15 15 15 14 15 16 16 15 16 16 17 18 19 18 17 16 15 13 13 14
28 30 30 31 32 32 31 32 31 30 29 29 29 29 29 27 28 30 31 30 29 29 30 30 30 28 27 30 30 28 28 28 26 24 24 24 23 23 22 21 21 21 22 23 22 21 22 22 21 21 21 20 20 19 18 18 17 17 17 17 17 17 17 16 15 15 15 16 16 16 15 14 13 13 14 15 17 17 17 16 15 12 11 13 14
28 30 31 32 32 31 30 31 31 30 29 29 28 28 28 28 28 28 28 27 28 28 28 29 29 28 29 31 31 30 29 28 27 26 26 26 25 24 21 19 19 21 22 22 23 23 23 20 17 17 18 19 19 18 17 16 17 17 17 17 17 17 17 17 16 16 16 16 15 15 14 14 13 13 13 14 16 15 15 14 13 12 12 13 14
27 30 31 30 30 29 30 31 31 30 29 28 26 26 26 25 25 26 26 25 26 28 28 28 29 28 28 29 29 29 30 29 27 26 25 24 23 22 20 18 18 19 21 23 23 22 22 19 15 15 19 20 19 18 18 17 17 17 17 17 17 18 18 18 17 17 16 15 15 15 15 15 15 14 14 14 14 13 13 12 12 12 12 14 15
27 29 30 29 29 29 30 31 31 29 28 27 26 26 23 19 19 23 25 23 23 25 26 27 28 27 26 26 26 27 28 26 24 24 23 21 20 19 18 16 16 17 19 20 19 18 19 19 17 18 21 21 19 17 17 17 17 17 17 17 17 18 18 18 18 17 16 15 15 15 15 16 16 15 14 13 13 12 12 11 11 12 12 14 15
27 29 30 29 29 30 31 32 31 29 28 27 25 25 24 22 22 23 22 19 18 21 22 23 24 24 24 24 24 24 24 23 22 21 20 19 18 17 14 13 15 18 20 19 16 17 20 21 19 19 19 19 18 17 17 17 17 17 17 17 18 18 18 18 18 17 16 15 15 15 16 16 16 15 14 13 12 12 11 11 11 11 12 13 14
27 28 29 28 27 29 31 33 31 29 27 26 24 25 26 26 25 25 22 18 18 20 22 22 21 20 21 21 21 21 20 20 19 19 18 16 15 14 13 13 14 17 19 17 15 17 21 20 18 17 17 17 17 17 17 17 17 17 18 18 18 19 19 19 18 18 17 16 15 16 16 16 16 16 14 12 11 11 12 11 11 12 13 13 14
26 28 28 27 27 28 30 31 31 29 26 25 25 25 24 24 24 24 24 23 22 21 22 21 20 19 19 20 19 18 18 17 17 17 16 15 14 14 14 13 11 13 17 17 15 16 18 19 17 16 17 17 16 16 16 17 17 17 18 18 18 18 18 18 18 17 17 16 16 17 17 17 18 16 12 11 12 12 11 11 11 12 13 12 13
25 27 28 27 25 26 27 28 28 28 26 24 24 24 23 23 22 22 22 22 21 20 19 19 19 19 19 20 19 17 16 16 16 15 13 13 14 16 14 11 10 13 17 19 18 17 17 18 17 16 15 15 15 15 15 16 16 17 16 17 17 17 17 17 17 17 16 16 16 17 17 17 17 15 12 12 13 13 13 12 11 11 12 12 13
24 26 26 26 24 25 26 27 26 23 21 21 22 23 23 23 22 21 21 21 20 18 17 17 18 19 20 19 18 16 15 13 12 12 12 13 16 19 17 15 15 17 18 19 19 17 16 15 14 13 13 13 14 14 14 15 15 16 15 16 16 16 17 17 17 17 16 16 17 17 17 17 17 17 16 15 15 15 16 15 13 12 12 12 13
24 25 25 24 23 23 25 25 23 20 18 19 20 21 22 21 20 19 19 19 19 19 18 18 20 20 20 19 16 14 14 15 16 16 17 18 20 22 21 20 20 19 18 18 17 15 13 13 12 12 12 12 13 13 14 14 14 15 15 15 15 16 16 17 17 17 17 17 17 18 18 19 18 18 17 17 18 18 17 15 13 12 12 12 13
23 24 24 22 20 21 21 21 20 20 20 20 19 19 20 20 19 19 19 19 19 19 19 20 21 21 20 19 17 17 19 21 20 19 20 21 22 22 22 21 20 18 16 16 14 13 12 12 11 11 11 12 12 12 13 13 13 14 14 15 16 17 17 17 17 17 17 18 18 18 18 18 18 17 17 17 19 19 17 16 16 15 15 15 15
22 23 23 22 20 19 20 20 20 20 20 19 18 18 20 20 20 20 20 20 20 19 17 18 19 20 18 18 17 18 20 20 19 18 20 22 23 21 20 19 18 16 14 13 12 12 11 11 11 11 11 11 12 12 12 13 13 14 15 16 16 17 18 18 18 18 18 18 18 19 19 18 18 18 18 18 19 19 18 17 16 15 15 15 15
22 23 23 22 20 19 19 20 20 19 19 19 18 19 20 20 19 19 18 18 18 16 14 13 15 16 15 14 14 16 18 17 16 17 19 21 21 19 18 16 15 13 12 11 11 11 10 10 11 11 11 11 11 11 12 13 14 14 15 16 17 18 18 19 19 19 19 19 19 19 19 19 19 19 20 21 21 20 18 16 14 14 14 14 14
23 23 23 23 22 21 20 20 19 17 17 17 17 18 19 18 17 17 16 15 14 13 12 11 12 12 11 10 11 15 17 16 15 16 17 18 18 17 15 13 12 11 10 10 10 10 10 10 10 11 11 11 11 12 12 13 14 14 15 16 17 18 18 19 20 19 19 20 19 18 18 18 19 20 21 22 22 19 17 15 15 15 15 15 14
23 23 23 23 23 22 21 20 18 18 18 17 17 17 16 16 16 16 14 13 12 11 11 11 11 10 9 9 11 14 15 14 14 14 14 15 16 15 13 11 11 10 9 9 10 10 10 10 11 11 11 12 12 12 13 13 14 14 15 16 17 18 19 20 20 20 19 19 18 18 18 19 20 21 22 22 20 18 16 15 15 15 15 15 15
22 22 22 21 20 19 19 18 17 17 17 16 16 16 16 15 15 14 13 12 11 10 10 9 9 8 9 10 12 13 13 12 11 11 11 12 13 12 11 10 10 9 9 9 9 9 10 10 10 11 11 12 12 13 13 13 14 15 15 16 18 19 19 20 20 20 20 19 20 20 21 21 21 22 22 21 18 16 15 15 15 16 16 16 16
21 20 20 19 17 16 16 15 15 15 15 14 13 14 13 13 12 11 11 10 9 8 8 7 7 8 9 10 10 11 10 10 10 10 10 11 11 10 10 9 8 8 8 9 9 9 9 9 10 11 12 12 13 13 14 14 15 15 16 17 18 19 19 20 20 20 20 20 20 20 20 20 20 21 21 21 18 17 16 16 16 17 18 18 18
19 19 19 17 16 15 14 14 13 13 13 12 11 11 10 9 9 8 8 7 7 7 7 8 8 9 10 10 10 10 10 10 10 10 10 9 9 8 8 7 7 7 7 7 7 7 8 9 10 11 12 13 13 14 14 15 15 16 16 17 17 18 18 19 19 20 19 19 18 18 18 18 20 20 20 21 20 18 17 18 18 18 19 20 20
18 18 17 16 15 13 13 13 12 11 10 9 9 8 8 8 7 7 7 7 8 9 9 9 9 10 10 10 11 12 11 10 10 9 8 7 6 5 5 5 5 5 5 6 6 7 8 8 10 11 12 13 14 14 15 15 16 16 17 17 17 17 18 18 17 18 17 16 16 17 17 18 20 20 21 22 22 20 19 19 19 19 20 20 21
16 16 15 15 14 13 12 12 10 9 9 9 8 8 8 8 8 8 8 8 8 8 9 9 10 10 11 12 12 11 10 9 7 6 5 4 3 3 3 3 4 4 5 6 6 7 7 8 9 11 11 12 13 14 14 15 16 16 17 17 17 17 17 16 15 15 14 14 16 17 18 20 21 22 22 23 23 22 21 20 20 21 21 21 21
14 14 13 13 13 12 11 10 9 8 9 9 9 9 8 8 7 7 7 7 8 8 9 10 11 12 12 12 11 9 8 7 5 4 3 2 1 2 2 3 4 5 5 6 7 7 8 9 10 11 11 12 13 13 14 14 15 15 16 16 16 16 16 14 14 14 14 14 16 18 19 20 21 21 20 20 20 19 20 20 21 21 22 22 22
12 12 11 11 11 10 9 8 7 6 6 7 7 7 7 7 7 7 8 9 10 11 12 12 12 12 11 10 9 7 6 5 4 3 2 1 1 2 2 3 4 5 5 6 7 7 8 9 9 10 11 11 12 12 13 13 13 14 14 15 15 15 14 14 14 14 14 14 16 17 18 19 20 21 21 21 20 20 21 21 22 22 23 23 23
Wind_Direction
282 285 286 286 282 275 267 261 258 256 256 255 255 256 255 253 252 252 252 251 250 249 249 249 250 250 250 250 249 249 249 249 250 250 250 250 247 244 243 238 230 225 227 228 226 222 216 216 220 224 228 228 226 231 236 239 241 240 237 236 236 233 232 240 254 266 272 272 268 270 267 270 285 293 291 290 295 300 304 305 306 308 311 311 311
280 278 279 281 283 282 277 269 263 259 257 256 256 257 257 255 254 253 251 251 251 251 250 250 251 250 250 250 249 247 246 244 244 243 243 245 246 247 246 243 239 235 235 236 237 236 232 231 234 237 241 242 239 238 239 239 241 242 240 238 241 240 234 238 251 262 270 272 269 271 271 267 277 288 287 280 284 293 298 300 300 301 304 304 301
282 277 275 276 278 279 278 276 272 267 263 262 261 261 260 258 256 255 254 253 253 252 252 252 252 251 251 251 251 250 248 246 244 243 243 243 244 245 245 244 243 241 240 240 240 240 239 239 239 240 245 248 246 243 242 241 239 241 243 241 241 244 240 238 245 256 265 270 270 269 269 266 269 279 283 282 285 293 297 298 296 297 302 303 296
283 280 277 276 276 275 276 276 276 274 272 271 271 269 266 263 259 257 256 255 255 254 254 254 253 253 252 251 252 252 251 250 248 248 247 246 246 247 247 246 246 244 244 244 243 243 244 244 244 245 248 250 249 247 245 244 244 244 247 246 243 247 248 242 243 251 260 267 267 264 265 268 268 274 282 284 285 289 291 291 290 292 297 297 292
281 280 278 277 275 274 274 274 273 274 275 276 278 277 273 269 264 261 258 257 256 256 256 255 253 253 254 254 254 255 256 255 253 253 252 252 251 251 250 250 250 249 249 248 247 247 247 248 248 249 250 252 252 251 250 252 253 251 251 251 248 248 250 248 247 248 252 260 264 263 260 260 265 272 277 278 280 283 283 282 282 284 286 287 285
281 278 276 276 275 274 273 272 272 273 274 275 276 277 275 273 270 266 262 259 258 257 256 256 255 254 255 257 257 257 258 258 257 257 257 256 255 254 253 253 254 254 254 253 253 252 252 252 253 253 253 254 256 255 255 256 258 258 257 257 254 251 250 251 250 248 249 254 260 262 259 254 259 266 268 267 271 278 283 284 282 278 279 282 282
280 280 276 273 273 274 274 274 274 273 273 273 273 272 271 271 271 270 267 263 261 259 257 256 256 256 257 258 258 258 258 258 259 259 258 258 257 256 255 255 256 257 257 257 257 257 257 257 257 256 256 257 259 260 260 259 259 261 262 261 257 253 250 251 250 248 248 252 254 256 256 253 254 258 259 257 262 270 276 281 283 281 279 281 283
275 277 277 274 273 275 276 276 275 274 273 272 271 270 269 268 267 269 268 266 264 263 261 260 259 259 258 258 258 258 258 258 258 258 258 257 257 257 257 257 257 258 259 260 260 260 260 260 260 260 259 259 261 262 262 260 258 259 262 261 257 252 250 250 250 248 248 250 252 252 254 254 252 254 254 249 253 262 263 268 280 285 284 282 282
275 272 273 275 277 279 279 276 274 274 273 272 271 271 270 268 266 265 265 266 267 266 265 263 261 261 260 259 258 258 257 257 257 257 257 257 257 258 258 258 258 259 259 260 261 261 261 262 262 262 262 262 263 262 262 260 257 256 257 257 254 250 248 248 247 248 248 248 249 249 250 251 249 250 248 245 251 262 265 269 277 282 284 285 282
285 276 272 272 276 280 280 277 274 272 272 272 273 272 272 270 268 266 264 264 265 266 266 264 262 262 262 261 261 260 259 259 260 260 258 257 257 258 259 259 259 259 259 260 261 262 262 263 264 264 264 265 265 264 263 262 260 258 257 255 251 247 246 246 245 245 245 247 249 248 248 250 249 248 250 253 259 265 268 271 276 282 287 287 285
292 287 279 275 275 276 278 279 277 273 271 271 271 272 273 272 270 268 266 264 264 264 264 264 264 263 262 262 262 262 262 264 265 265 263 260 257 256 258 260 260 260 259 259 260 261 262 263 265 266 266 265 265 265 265 264 263 261 260 258 254 250 247 246 245 244 244 247 249 247 248 253 253 250 253 261 264 264 267 271 275 282 285 285 288
292 291 289 284 278 276 276 278 278 277 275 273 271 271 271 270 270 269 268 267 265 264 263 264 264 264 263 263 262 262 264 266 267 267 267 265 261 258 257 259 260 261 260 260 261 261 261 262 264 266 266 266 265 265 265 265 264 263 262 261 258 255 251 249 248 247 245 248 251 248 248 253 256 254 255 262 267 270 273 272 271 275 279 282 285
292 290 290 289 284 280 278 277 278 278 278 276 274 271 268 268 268 269 269 270 267 264 264 264 265 265 264 264 264 266 267 268 268 268 267 267 264 260 257 257 258 261 261 261 262 262 261 261 262 265 267 267 265 263 262 264 266 266 264 261 259 257 254 251 250 248 247 249 252 250 249 253 257 259 260 262 269 276 275 272 271 275 278 278 278
292 290 289 288 287 284 281 278 277 278 280 279 276 271 268 267 267 268 269 268 267 265 265 264 265 266 265 266 267 268 270 271 270 269 268 267 264 260 257 256 257 260 262 262 262 263 262 260 261 264 266 267 267 264 261 262 263 264 263 260 257 255 254 253 251 248 245 244 248 251 251 252 256 263 269 268 267 270 274 277 280 280 277 275 274
291 290 289 288 286 285 282 279 278 279 280 279 276 273 269 268 268 268 267 266 266 266 266 265 265 266 267 267 267 268 270 272 272 271 269 268 265 260 256 255 256 259 262 263 263 263 263 261 261 263 265 266 265 263 261 261 260 259 258 256 253 251 249 249 246 241 237 236 240 245 248 251 258 266 270 269 267 270 274 277 278 277 275 274 272
291 291 290 289 287 285 283 280 279 279 279 278 276 274 271 270 270 269 267 266 266 265 265 265 264 265 267 267 266 268 271 272 272 272 272 269 265 259 254 253 254 257 260 263 263 263 263 262 261 262 264 265 264 263 262 260 255 251 250 249 247 243 242 243 240 233 228 229 233 240 248 256 264 268 268 269 271 274 275 271 269 273 277 278 278
290 292 292 291 289 286 284 281 279 279 279 277 275 275 274 272 271 270 267 265 265 266 266 266 266 265 265 265 265 267 271 273 272 272 271 268 262 256 253 251 252 255 259 262 262 262 263 263 261 261 262 263 264 263 262 259 252 246 244 243 241 237 238 242 242 236 233 235 240 247 255 260 264 266 267 265 263 263 266 270 274 279 281 281 283
290 292 293 294 292 289 286 282 279 278 277 276 276 276 276 274 273 271 267 264 265 267 269 268 267 265 264 264 265 267 270 273 272 270 269 267 260 255 251 249 250 254 257 259 261 261 262 263 262 259 259 262 263 262 259 256 249 243 239 236 235 233 229 233 239 237 235 240 247 253 260 262 261 262 261 258 256 256 260 270 277 281 280 280 283
290 292 293 295 294 291 287 284 281 278 277 276 277 278 278 277 275 273 269 265 265 267 268 267 266 265 265 266 266 267 269 272 271 269 268 266 260 254 250 246 247 252 255 256 258 260 262 264 263 261 260 260 261 260 257 252 247 241 234 231 231 229 222 222 230 232 231 240 249 254 259 259 255 253 253 256 258 258 261 269 277 279 278 278 280
292 293 293 293 293 291 289 286 283 280 278 278 279 280 280 279 276 273 270 266 265 265 266 264 263 264 265 266 266 266 267 269 270 269 267 264 260 254 248 244 246 250 252 254 255 258 260 262 264 265 264 261 259 258 255 252 244 236 231 230 227 222 218 221 228 230 230 237 243 243 244 243 237 238 246 255 261 263 268 275 279 274 273 275 274
293 292 292 292 291 291 290 288 286 284 282 281 280 280 279 277 275 273 270 266 264 264 264 262 261 262 265 265 265 265 266 267 267 267 266 264 262 256 248 246 249 251 251 251 254 256 258 260 264 268 267 264 260 256 254 250 238 228 228 228 221 217 220 224 230 233 232 233 236 237 237 238 237 238 248 258 267 273 278 281 279 270 265 268 270
292 291 291 290 289 289 289 288 286 285 284 282 279 278 278 277 275 272 269 266 263 262 262 261 259 261 264 265 264 265 266 266 266 266 266 265 263 258 252 251 253 253 250 249 253 257 259 261 265 269 268 266 261 255 251 243 227 221 225 225 221 223 227 230 232 232 231 231 234 238 244 249 249 248 257 267 273 277 280 280 276 268 262 261 264
292 290 290 288 287 287 287 286 285 284 282 280 276 275 277 276 274 271 267 263 261 260 260 259 257 258 262 264 266 267 268 268 268 269 268 266 264 262 259 257 256 253 250 250 253 257 260 263 265 267 268 265 258 250 242 226 213 215 220 221 223 225 227 228 228 228 229 233 238 244 250 254 257 260 266 272 274 275 274 272 269 266 265 264 263
292 289 289 287 287 287 286 285 284 282 280 278 274 272 274 273 271 269 264 259 257 256 258 257 255 255 259 263 267 271 271 271 271 271 270 269 267 266 264 262 259 255 252 253 255 257 260 263 265 266 266 261 250 238 221 208 205 210 211 210 213 214 217 222 225 226 231 237 243 250 254 257 260 264 267 268 267 267 268 269 271 273 273 273 272
289 288 288 287 287 287 286 284 283 280 278 276 272 270 270 269 266 264 261 256 253 252 255 256 254 254 256 260 266 272 274 273 274 275 275 274 271 268 266 264 262 258 254 254 257 258 260 263 264 264 261 250 232 214 203 201 203 204 202 204 209 212 217 224 226 230 237 240 244 251 255 257 259 260 260 261 265 271 275 278 280 283 284 284 283
288 288 289 288 288 288 286 284 284 281 279 276 272 270 268 264 261 260 258 255 251 250 251 254 254 254 255 259 265 271 274 274 275 276 276 275 272 270 268 265 264 261 255 254 256 258 260 261 260 257 247 224 206 199 198 199 199 199 202 207 213 218 223 229 232 236 240 242 246 251 253 253 253 256 262 267 272 277 279 280 283 286 289 289 288
288 288 288 289 289 288 285 284 284 283 280 277 273 270 267 262 256 254 253 251 248 248 249 251 253 253 255 260 264 268 271 273 274 274 273 272 273 273 271 268 265 260 256 252 250 250 252 252 249 240 218 198 196 198 199 199 200 203 208 215 222 229 235 238 240 241 243 245 248 250 251 255 261 266 271 275 278 280 281 281 283 286 286 284 282
287 287 287 287 287 286 284 283 281 280 279 277 272 266 264 260 253 253 254 252 248 247 248 250 253 254 256 260 264 266 269 270 271 273 273 274 273 273 271 267 262 257 252 247 242 240 239 234 222 208 196 191 194 197 199 202 207 213 219 225 232 238 241 244 245 247 248 247 247 252 260 265 269 272 276 278 280 283 285 285 285 284 281 277 275
286 285 285 284 283 284 284 281 279 277 276 277 274 268 266 262 257 258 262 259 254 252 252 253 257 259 260 261 261 260 262 267 272 276 276 274 272 270 268 264 261 257 250 242 235 227 219 209 200 192 190 191 192 194 200 206 211 218 225 230 236 240 243 247 249 248 249 250 253 260 264 266 268 273 277 279 283 287 289 287 283 280 276 271 268
284 283 283 282 282 283 282 280 278 276 273 272 272 272 272 268 262 261 265 265 262 259 256 256 258 259 260 262 261 259 262 268 275 277 276 275 274 274 273 269 263 256 246 236 227 216 205 199 194 191 191 191 192 196 201 205 210 219 225 230 237 242 247 249 247 246 250 256 260 261 260 261 266 271 275 279 285 289 289 285 280 272 266 266 267
282 282 283 282 282 283 281 279 278 276 272 269 268 269 272 272 268 264 263 264 263 259 257 256 256 255 256 260 265 267 268 271 274 275 276 277 277 276 275 270 260 250 238 225 215 208 202 197 192 192 195 197 199 203 206 208 214 221 225 232 240 245 247 247 247 251 258 261 260 259 260 263 267 270 273 278 282 284 283 281 275 264 259 262 266
281 282 284 284 283 283 281 280 280 277 274 271 267 264 265 269 273 271 267 262 260 258 257 256 257 258 258 260 264 268 271 273 275 276 277 278 276 275 272 264 252 242 230 218 211 207 203 198 193 195 199 203 206 211 214 217 221 224 227 234 242 245 246 247 251 257 259 257 256 260 263 266 270 273 275 277 277 276 274 271 266 262 263 265 264
284 284 286 285 285 284 284 282 281 279 276 274 271 266 262 261 267 273 273 268 263 259 256 255 257 260 262 262 263 265 268 273 275 276 276 274 272 270 266 254 238 224 212 206 206 205 201 200 201 202 204 208 212 215 217 221 224 228 232 237 240 244 248 252 257 259 256 254 257 261 265 271 275 277 276 274 271 269 267 266 264 264 266 267 267
289 287 288 286 284 284 284 283 283 281 280 278 274 269 265 260 260 264 270 272 269 265 261 258 258 260 261 263 263 263 266 269 269 269 270 268 265 261 252 237 223 213 206 203 204 204 202 202 204 205 207 211 215 216 219 224 229 234 237 239 242 247 252 257 259 258 256 257 260 263 268 273 275 274 272 268 264 262 261 262 263 264 264 266 271
294 291 290 288 285 284 284 284 283 282 281 279 274 269 266 264 262 260 261 263 267 270 271 270 267 264 263 263 263 264 265 264 262 262 263 261 256 244 226 214 211 209 208 208 207 206 206 205 205 206 208 213 217 221 226 231 234 236 238 242 246 251 254 256 256 256 258 259 262 266 271 274 275 274 269 262 257 258 259 259 260 263 264 267 273
295 292 292 291 288 286 285 284 283 281 280 278 275 272 269 266 263 261 259 259 260 265 270 271 270 269 266 264 264 265 262 258 257 257 256 250 237 218 205 204 205 205 207 209 209 208 209 209 209 210 213 217 223 229 232 235 238 241 244 247 250 251 252 253 254 256 259 261 265 270 273 275 275 272 263 255 257 258 258 257 258 260 261 264 270
293 291 291 291 290 287 285 284 283 282 280 277 275 274 271 267 263 261 260 259 259 260 263 265 265 265 263 262 262 261 257 255 254 250 243 235 221 209 205 207 206 202 207 211 211 209 209 209 211 214 219 225 231 235 238 242 245 248 250 251 251 252 254 255 257 259 261 263 268 273 275 275 273 268 259 257 260 261 261 262 261 261 263 265 269
293 291 291 292 291 288 285 285 285 284 281 277 275 274 271 268 264 259 257 258 257 256 256 257 257 255 255 258 259 256 250 244 234 224 219 215 211 209 210 212 209 207 209 211 210 208 208 210 215 221 228 234 238 242 246 250 252 253 254 254 255 257 259 261 262 263 265 268 271 274 274 273 271 269 265 263 264 268 270 270 266 266 270 268 266
297 297 297 296 293 289 286 285 283 281 278 276 275 272 268 264 261 258 257 258 256 254 254 254 253 250 250 253 250 239 224 212 205 202 202 203 205 208 210 211 211 211 212 211 209 212 217 223 229 233 237 242 247 250 253 255 256 257 258 258 260 263 264 265 266 267 269 272 274 274 274 272 272 272 270 268 269 272 273 272 269 268 270 269 266
299 299 299 298 293 288 284 280 278 276 275 273 272 268 263 259 258 257 257 256 255 254 253 252 252 251 251 250 241 225 211 205 203 202 200 201 204 207 208 209 209 211 213 214 216 223 231 236 240 244 248 252 255 256 258 260 262 264 265 266 267 268 269 270 271 272 274 277 277 276 275 273 273 274 272 270 272 274 274 275 276 273 269 270 270
296 295 296 296 292 286 280 274 271 271 271 270 267 264 261 258 256 255 254 253 254 254 252 253 255 254 253 253 245 228 214 207 203 201 203 205 206 206 206 208 209 211 215 218 223 231 237 242 247 251 254 258 260 261 264 266 266 268 270 271 272 273 274 275 276 279 281 282 280 279 277 276 275 275 273 272 274 276 276 274 275 273 270 269 270
291 290 292 292 288 281 274 271 271 271 270 267 263 261 260 259 256 255 255 254 255 255 254 256 256 253 253 255 245 226 215 210 205 205 208 209 208 206 205 206 207 210 215 222 229 235 241 246 250 254 256 259 262 263 264 266 268 269 271 272 273 275 277 278 281 284 285 285 284 282 279 278 277 276 275 276 279 279 276 271 269 270 270 270 270
287 285 286 286 283 278 274 274 275 272 266 263 261 260 261 260 259 259 258 257 256 256 256 257 256 251 249 247 231 217 215 214 211 211 213 210 206 203 203 203 206 213 221 228 235 241 244 248 252 255 256 257 258 260 262 265 267 269 271 273 275 278 279 281 284 287 288 288 286 283 280 279 279 279 281 282 281 278 274 270 269 269 269 270 272
283 282 282 281 281 279 277 276 274 271 268 266 264 262 261 260 258 258 257 254 252 250 249 251 252 243 229 217 211 211 214 215 213 215 215 208 201 200 202 206 212 221 229 236 242 245 248 251 254 256 258 260 261 263 266 269 271 272 274 277 278 280 283 285 288 289 288 286 284 282 280 280 281 282 283 284 281 277 274 271 269 269 269 271 272
280 278 278 278 277 277 276 274 271 270 269 267 263 261 260 259 257 257 255 252 250 247 244 242 238 223 208 202 204 209 214 215 213 212 206 198 195 199 205 211 220 228 234 241 247 249 251 255 258 261 266 269 271 273 275 276 277 279 279 280 281 283 286 288 289 289 287 285 284 283 282 282 282 283 284 283 280 276 274 272 270 270 271 271 270
279 275 273 272 272 271 270 269 267 265 263 260 257 258 258 256 254 253 253 251 248 242 234 224 210 200 198 200 203 205 205 201 195 189 186 187 192 199 207 215 225 233 239 246 251 253 257 263 267 271 275 278 280 282 284 284 284 285 284 284 284 286 289 291 291 290 289 288 287 286 284 283 282 283 285 285 282 277 274 273 271 270 271 271 272
277 273 270 268 266 265 265 265 264 263 261 258 256 256 254 250 246 244 242 237 230 220 211 198 189 188 191 192 189 185 180 178 176 176 178 185 193 202 213 224 233 240 248 254 259 264 270 275 277 281 284 287 288 290 291 291 291 290 290 290 290 291 293 293 293 292 293 294 294 292 289 285 284 284 285 285 283 279 276 274 272 271 271 273 274
275 272 269 265 263 261 261 263 263 261 258 255 252 249 244 237 230 223 214 208 203 196 188 181 177 175 174 171 169 167 167 168 171 174 178 187 197 208 222 236 246 256 264 270 274 279 283 285 287 290 291 291 293 294 294 295 296 297 297 297 298 299 299 299 298 299 301 302 302 300 296 290 286 285 285 284 283 280 276 275 275 275 276 277 276
273 271 269 266 264 260 259 259 255 249 244 240 234 230 224 217 210 203 195 189 185 178 171 167 163 158 157 156 156 157 161 163 166 169 174 183 201 223 246 263 273 280 284 288 291 294 295 295 295 294 294 294 296 297 298 299 300 300 300 301 302 302 302 301 301 302 304 304 303 301 297 292 289 288 287 286 284 280 276 274 275 277 278 277 275
273 271 269 266 263 259 256 252 242 234 230 224 215 210 202 192 185 179 171 163 156 149 147 148 146 145 147 149 149 152 154 155 156 160 161 169 219 261 282 291 295 299 302 304 305 304 302 300 299 297 297 298 299 299 300 300 300 299 300 300 299 298 299 301 304 307 309 307 304 299 294 290 288 287 284 282 281 278 275 274 275 277 277 276 275
271 268 265 263 259 254 250 243 232 223 218 207 198 190 176 160 151 146 142 140 138 135 136 137 138 138 141 142 142 144 145 142 142 145 147 169 247 273 286 291 295 299 302 302 303 304 303 302 301 301 302 303 303 302 302 301 300 300 299 297 297 300 303 306 305 302 298 294 290 288 286 286 286 285 284 284 282 279 278 277 277 277 278 277 277
Height
846 845 844 844 843 842 842 842 842 842 841 841 841 841 841 841 840 841 841 840 841 840 840 840 840 839 839 839 838 838 838 838 838 838 837 837 836 836 835 835 835 835 835 835 835 835 835 835 835 835 835 835 835 836 836 835 835 836 836 835 835 835 835 834 833 830 828 829 828 828 827 827 826 825 825 824 823 822 820 819 818 817 816 814 813
844 843 842 841 841 840 840 840 839 839 839 839 838 838 838 838 838 838 838 838 838 838 838 839 839 838 838 838 838 837 837 837 837 837 837 836 836 835 835 835 834 834 834 834 834 834 834 834 835 835 834 834 835 835 835 835 835 835 834 834 834 833 833 833 832 829 827 827 827 826 825 824 823 823 822 821 820 819 818 816 815 814 812 811 810
842 841 840 839 839 838 837 838 837 837 837 836 836 836 835 836 835 835 835 835 836 836 836 836 836 836 836 836 836 836 836 836 835 835 835 835 835 834 834 834 834 833 833 833 833 833 833 833 834 834 833 833 833 834 834 834 833 833 832 832 831 831 831 830 830 828 826 825 824 824 823 822 821 819 819 818 816 815 814 813 812 811 809 808 806
839 838 838 837 837 836 835 835 834 834 834 834 834 834 834 833 833 833 832 832 832 832 833 833 833 834 834 833 834 834 833 834 834 833 833 833 833 833 832 832 832 832 832 832 832 831 831 831 831 832 832 831 831 831 832 831 831 831 830 829 829 828 828 828 827 826 824 822 822 821 821 819 818 817 816 814 813 812 811 810 808 807 806 805 803
837 836 835 834 834 833 832 832 831 830 830 830 830 831 831 831 831 830 830 829 829 829 829 830 830 830 830 830 830 830 830 831 831 831 831 830 830 830 830 830 830 830 830 830 830 829 829 829 829 829 829 829 828 828 828 828 828 828 827 827 826 825 825 825 824 823 822 820 819 818 817 816 814 813 812 811 810 809 808 807 806 804 803 802 801
834 833 832 831 831 830 829 828 827 827 826 825 825 826 826 827 827 827 827 826 826 826 826 825 825 826 826 826 827 827 827 827 827 827 827 827 827 827 827 827 827 827 827 827 827 827 826 826 826 826 826 825 825 825 825 825 824 824 824 823 823 823 822 821 820 820 819 817 816 815 814 813 811 810 809 809 808 807 806 805 803 802 801 799 798
830 829 829 828 827 826 826 825 824 824 823 822 821 821 821 822 822 823 823 823 823 822 822 821 821 821 822 822 822 822 823 823 823 823 824 824 824 824 824 824 824 823 823 823 823 823 823 822 822 822 822 821 821 821 821 821 821 820 820 820 820 819 819 818 817 816 815 814 813 811 810 809 808 806 806 806 805 804 803 802 801 800 799 797 796
827 826 825 824 824 823 823 822 821 821 820 820 819 818 817 817 817 817 818 818 818 818 818 818 817 817 818 817 818 818 818 818 819 819 819 820 820 820 820 820 820 819 819 819 819 818 818 818 818 817 817 817 817 817 817 817 817 817 816 816 816 815 815 814 813 812 811 810 809 808 807 806 805 803 803 803 801 800 800 799 798 797 796 795 793
823 823 822 821 820 820 819 819 818 818 817 817 816 815 814 813 812 812 813 813 814 814 814 814 814 813 813 813 813 813 813 813 813 814 814 815 816 816 816 816 816 815 815 814 814 813 813 813 812 812 812 812 812 812 812 813 813 812 812 812 811 811 810 810 809 808 807 806 805 804 803 802 801 800 800 799 798 797 797 796 795 794 793 792 791
820 820 819 818 818 817 816 815 815 814 813 813 812 812 811 810 809 808 808 808 808 809 809 809 809 809 809 808 808 808 808 808 808 809 810 811 812 812 811 811 811 811 810 810 809 808 808 807 807 806 807 807 806 806 806 807 807 807 807 807 807 806 806 805 805 804 803 802 801 800 799 797 797 797 796 796 796 795 795 794 792 791 790 789 787
817 817 816 816 815 814 813 812 811 810 810 809 808 808 808 807 806 805 804 804 803 804 804 804 804 804 804 804 803 803 802 803 804 804 805 806 807 808 807 807 807 806 806 805 804 803 803 802 801 801 801 801 800 800 801 800 801 801 801 801 801 802 801 801 800 800 800 798 797 797 796 794 794 794 794 794 794 793 793 792 791 789 788 786 784
814 813 813 812 812 811 810 809 808 807 806 805 804 804 803 803 802 802 801 800 799 799 799 799 799 799 799 799 798 798 797 798 799 800 800 801 802 803 803 802 802 801 801 800 799 799 798 797 796 796 795 795 795 795 795 794 795 795 795 795 795 795 796 796 796 797 796 795 794 793 793 792 792 792 792 792 792 791 791 790 789 788 786 785 783
810 809 808 807 808 808 807 806 804 803 802 801 800 800 798 798 798 797 797 797 796 795 794 794 794 794 794 794 794 793 792 793 795 795 796 796 797 798 798 797 797 796 795 795 795 794 793 793 792 791 790 790 791 791 790 790 790 790 790 790 790 789 790 791 791 792 792 792 791 790 790 790 790 790 790 790 790 790 789 788 787 786 784 783 781
806 804 802 801 802 802 802 802 800 799 798 797 796 795 794 793 793 793 793 793 792 792 791 790 790 789 790 790 790 789 788 789 790 791 791 791 792 793 793 792 792 791 790 790 789 789 789 788 788 787 786 786 786 786 787 787 787 787 786 786 785 785 785 786 786 787 788 789 788 788 788 788 788 788 788 788 788 788 787 786 785 783 782 781 780
802 800 798 796 796 796 796 796 795 794 794 793 792 790 789 789 788 788 789 788 788 788 787 787 786 785 785 786 786 785 784 785 786 786 786 787 787 788 788 787 787 786 785 784 784 784 784 784 783 782 782 782 782 782 783 784 784 783 782 782 781 781 781 781 782 783 784 785 785 785 785 785 786 786 786 786 786 785 785 784 782 781 780 778 777
799 797 795 793 791 790 789 789 789 789 789 788 787 786 784 783 783 783 783 783 783 783 783 783 782 782 782 781 781 780 780 781 782 782 782 782 783 783 783 783 782 781 780 779 779 779 779 779 779 778 778 777 777 778 779 779 780 779 778 778 778 778 778 777 778 779 780 781 782 782 782 782 783 783 784 784 784 783 782 781 780 780 778 776 774
795 794 792 789 787 785 784 783 783 782 783 783 782 781 780 778 778 778 778 778 778 778 778 778 778 778 777 777 776 776 775 776 777 777 778 778 778 778 778 778 777 775 774 774 774 774 774 774 773 773 772 772 772 773 774 774 775 774 773 773 773 774 774 773 774 776 777 777 778 778 779 779 780 780 781 781 781 780 780 779 779 778 776 774 772
792 790 787 785 783 782 780 779 778 777 777 777 776 776 775 774 773 773 773 773 773 773 773 773 773 773 772 772 772 771 770 771 772 772 772 773 773 773 773 773 772 770 769 769 769 769 768 768 768 768 767 767 768 768 769 769 770 769 769 770 769 769 770 770 771 772 773 774 775 776 776 777 777 778 778 777 777 778 778 777 777 777 775 773 771
787 785 783 781 779 778 778 776 774 773 772 771 771 771 770 770 769 769 769 769 768 768 768 768 767 768 767 767 767 766 765 766 767 767 767 767 767 767 767 767 766 764 764 764 763 763 762 762 763 763 763 763 764 764 765 765 766 766 766 766 766 766 767 767 768 769 770 771 772 773 774 774 775 775 774 774 774 775 775 775 775 775 773 771 769
783 781 778 777 775 775 775 774 772 770 768 767 767 767 766 766 766 765 765 764 764 763 763 763 762 762 762 762 762 761 760 760 761 761 761 761 761 761 762 762 760 759 759 759 758 757 757 757 757 757 758 759 760 760 760 761 762 762 763 762 762 763 763 763 764 765 767 768 769 770 771 772 772 772 772 772 772 771 772 772 772 772 770 768 767
778 776 774 772 771 771 771 770 768 767 765 763 763 762 762 762 762 762 761 760 760 759 758 757 756 756 757 756 755 755 754 754 755 756 755 755 755 756 756 755 754 754 754 754 753 752 752 752 752 753 754 755 755 756 756 757 758 758 758 758 759 759 760 760 762 763 764 765 766 767 768 768 769 769 769 769 768 768 768 768 767 768 767 766 764
774 771 770 767 766 766 766 765 764 763 761 760 759 757 758 758 758 758 758 757 756 754 752 752 752 751 751 750 749 749 748 748 749 750 750 750 750 750 749 749 749 750 750 749 748 747 747 747 748 749 750 750 751 751 752 753 754 754 754 755 756 757 757 758 759 760 762 763 763 764 764 765 765 766 765 765 764 764 764 763 763 763 763 763 762
770 768 765 763 761 761 760 759 759 758 757 756 754 753 753 753 754 754 753 753 752 750 748 748 747 747 745 744 744 743 743 744 745 745 745 745 745 745 744 744 745 746 745 744 743 743 742 743 744 744 745 746 746 747 748 750 751 751 752 753 754 755 755 756 757 758 759 760 760 761 761 762 762 762 762 761 760 760 760 759 760 760 759 758 758
768 765 762 759 758 756 755 754 753 752 752 751 750 749 748 749 749 749 749 749 748 746 744 744 744 743 741 740 740 740 740 740 740 740 741 741 742 742 741 741 741 741 740 740 739 739 739 739 739 740 741 742 743 744 746 747 749 749 750 751 752 752 753 754 755 756 756 757 757 758 758 758 758 758 758 758 757 756 756 756 756 755 755 754 753
765 762 759 757 755 753 752 750 749 748 748 747 746 745 744 744 745 744 744 744 743 742 741 740 740 739 738 737 736 736 737 737 736 737 737 738 738 738 737 737 737 737 736 735 735 735 735 736 737 737 738 739 740 742 744 745 747 748 748 749 749 750 751 752 753 753 754 754 755 755 755 755 755 755 755 754 753 752 752 752 751 750 750 748 747
762 760 757 754 753 751 749 747 745 745 744 744 742 741 740 740 740 739 739 739 738 738 737 736 735 735 734 734 733 733 734 734 733 733 733 733 733 733 733 733 733 733 732 732 732 732 733 733 734 734 735 737 738 740 741 742 743 745 745 746 747 748 749 749 750 751 751 751 752 752 752 752 752 752 751 751 750 749 749 748 747 746 745 744 742
759 757 754 751 750 749 747 745 743 741 740 739 738 737 736 735 735 734 734 734 734 734 733 732 732 731 731 731 730 730 730 729 728 728 728 727 728 728 728 729 728 728 728 728 728 729 729 730 731 732 733 734 735 736 738 739 740 741 742 743 744 745 746 747 748 748 748 749 749 749 749 749 749 749 748 747 747 746 746 745 744 743 742 741 740
755 753 750 748 746 745 743 742 740 738 736 735 734 732 731 730 730 729 728 728 729 729 729 728 728 728 728 728 727 726 725 723 722 723 723 724 724 723 723 723 723 723 723 723 725 726 727 728 728 729 730 731 732 733 735 736 738 739 740 741 742 743 744 745 745 746 746 746 747 746 746 746 746 746 745 744 744 743 743 742 741 740 740 739 737
751 748 746 744 742 740 739 738 736 734 732 730 729 727 726 726 725 724 723 724 726 726 726 726 725 725 725 724 722 722 719 718 719 721 721 721 721 720 720 719 719 719 719 720 722 723 724 725 725 726 727 728 730 731 733 734 736 737 738 740 740 741 742 743 743 744 744 744 745 744 744 744 744 743 743 742 741 741 740 739 739 738 737 736 734
746 744 742 739 737 736 735 733 731 730 728 726 724 722 721 721 721 720 719 720 722 722 722 721 721 721 720 718 717 718 717 717 718 719 719 719 719 719 718 718 717 717 717 718 720 720 721 722 723 724 726 727 728 730 731 733 735 736 737 738 739 740 741 741 741 742 742 743 743 743 742 742 742 741 741 740 739 738 737 737 736 736 735 733 731
742 739 738 736 734 733 731 729 728 727 724 723 721 719 717 716 715 715 716 716 717 717 716 716 715 716 716 715 715 716 716 716 717 717 717 717 717 717 717 716 716 716 716 716 718 718 719 720 722 723 724 725 727 728 730 731 733 734 736 737 738 738 739 739 739 740 740 740 740 740 740 739 739 738 738 737 736 735 735 734 734 733 732 730 728
739 736 734 733 732 731 729 727 726 724 722 721 720 718 716 714 712 711 712 713 713 712 712 712 712 712 713 714 714 713 713 713 714 714 714 714 714 714 714 714 714 714 714 715 716 716 716 718 719 721 722 724 725 727 728 730 731 732 734 735 735 736 736 736 737 737 737 737 737 737 736 736 735 735 734 733 733 732 732 732 731 730 728 727 725
736 734 732 730 729 728 727 725 724 722 721 720 719 717 716 715 712 710 709 710 710 710 710 710 710 710 710 711 711 710 710 710 711 710 710 711 711 711 712 712 712 712 713 713 713 713 714 715 716 717 719 721 722 724 725 727 728 729 730 731 731 732 733 733 733 733 734 734 733 733 732 732 731 731 730 730 730 729 729 728 727 726 725 723 721
733 731 729 728 727 725 724 723 721 720 719 718 718 717 715 714 712 710 709 709 709 708 707 707 707 707 707 707 707 707 707 707 707 707 707 707 708 708 709 710 710 711 711 710 710 710 710 711 713 714 716 718 720 721 722 723 724 724 725 726 727 728 729 729 730 730 730 730 730 729 729 728 728 728 727 727 727 726 726 725 724 723 722 720 718
729 726 725 724 724 722 721 720 718 717 716 715 714 713 712 711 711 710 709 708 707 706 705 704 705 704 704 703 703 704 704 704 704 704 705 705 706 707 708 708 708 709 709 708 708 708 708 709 711 712 714 715 717 718 719 720 720 721 722 723 724 725 725 726 726 726 726 727 726 726 725 725 724 724 724 724 723 723 722 721 721 720 719 718 716
725 722 721 720 720 719 717 716 715 714 712 711 710 709 709 709 709 708 707 706 705 704 703 702 702 702 701 700 701 701 701 702 702 702 703 703 704 705 706 706 706 706 707 707 707 708 708 709 710 710 711 713 714 716 717 718 719 719 720 721 721 722 722 722 723 723 723 723 723 722 722 722 721 721 721 720 719 719 718 717 717 716 715 714 713
721 719 717 717 716 715 714 712 711 711 710 708 707 707 706 707 706 705 705 704 703 702 701 699 699 699 698 697 697 698 698 699 700 700 701 702 703 704 704 704 704 704 704 705 706 706 707 707 708 709 710 711 713 714 716 717 718 718 719 719 719 719 719 719 719 720 720 720 719 719 719 718 718 718 718 717 716 715 714 714 713 712 711 711 709
717 715 714 714 714 713 711 710 709 708 707 706 705 704 704 704 704 703 701 700 700 699 698 697 696 695 694 693 694 695 696 697 698 698 699 700 701 701 701 701 702 702 702 703 704 705 705 706 707 708 709 710 711 713 714 715 716 717 717 717 717 717 717 717 717 717 717 717 717 716 716 716 715 715 714 713 712 711 711 710 710 709 708 707 706
713 712 711 711 711 710 709 708 706 705 704 703 701 701 701 701 700 700 699 698 697 696 695 694 693 691 690 690 691 692 693 694 695 695 695 696 697 697 697 698 699 700 701 702 703 704 705 705 706 707 708 709 710 711 712 714 714 715 715 716 715 715 715 714 715 715 714 714 714 713 713 713 712 712 711 710 709 708 708 707 706 705 704 703 702
710 709 708 708 708 707 706 705 703 701 700 699 698 698 697 697 697 696 695 695 694 693 692 691 689 688 688 688 688 689 690 690 691 691 692 692 693 694 695 695 697 698 700 701 702 703 704 705 705 706 707 708 709 710 711 713 713 714 714 714 714 713 713 713 713 712 712 712 711 711 710 710 709 709 708 707 706 705 704 703 702 701 700 699 698
707 706 704 704 704 703 702 701 699 697 696 696 695 695 695 694 694 693 692 691 690 689 689 688 686 686 686 686 686 687 688 688 689 689 690 691 692 693 693 694 696 697 699 700 701 702 703 704 705 706 706 707 708 709 710 711 712 712 712 712 712 711 710 710 710 710 710 710 709 708 707 707 706 706 705 704 703 702 701 699 698 697 697 695 694
704 702 701 700 699 699 698 696 695 694 693 693 693 692 692 692 691 690 689 689 688 688 688 686 685 685 685 686 687 688 688 688 688 688 689 690 692 693 694 695 696 697 698 699 700 701 702 703 703 704 705 706 706 707 707 708 708 709 709 708 708 708 707 707 707 707 707 707 706 705 705 704 703 703 701 701 700 698 697 696 695 694 693 692 691
701 700 698 697 696 696 695 693 692 692 691 690 690 689 689 689 689 689 688 688 687 687 687 686 685 685 685 686 687 688 688 688 688 688 689 691 692 693 694 695 695 697 698 698 699 700 700 701 701 702 702 703 703 703 703 703 703 704 704 704 704 703 703 703 703 704 704 703 703 702 702 701 700 699 698 697 696 695 693 692 691 691 690 688 687
698 697 696 695 694 693 692 691 690 690 688 688 688 687 687 687 687 686 685 685 684 684 684 684 684 684 685 686 687 688 688 689 689 689 690 691 692 694 694 695 696 696 697 698 699 699 699 699 700 700 700 700 700 700 700 700 700 700 700 700 700 699 700 700 700 700 700 700 700 699 699 698 697 696 695 694 693 691 690 689 688 687 686 685 684
695 694 693 692 691 690 689 688 688 687 686 686 686 685 684 684 684 684 683 683 682 682 682 683 684 684 685 686 687 688 689 689 690 690 691 692 693 694 694 695 695 696 696 697 698 698 698 699 699 699 700 700 700 699 699 699 699 698 698 698 697 697 697 697 697 697 697 697 696 696 696 695 694 693 692 691 690 688 687 686 685 684 683 681 680
692 691 690 689 688 687 686 685 684 684 683 683 683 682 682 682 682 682 683 683 683 683 682 683 684 684 685 685 686 687 688 689 689 690 691 692 693 694 694 695 695 696 696 697 698 698 699 699 699 700 701 700 700 700 700 699 699 698 698 697 696 695 695 695 694 694 694 693 693 693 692 692 691 690 689 688 687 685 684 683 682 681 680 678 676
690 689 688 687 686 685 683 682 682 681 681 681 681 681 681 681 681 681 682 682 682 682 682 682 683 683 683 684 685 686 687 688 689 690 691 692 693 694 695 695 696 697 697 698 699 699 699 700 700 701 702 702 702 702 701 700 700 699 698 697 696 694 693 693 692 691 690 690 690 690 689 689 688 687 686 685 684 682 681 680 679 677 676 674 672
687 686 686 684 683 682 681 680 679 679 679 680 680 680 680 680 679 679 679 679 680 680 680 681 681 681 682 683 684 685 687 688 689 690 692 693 694 695 696 697 698 698 699 700 700 700 700 701 701 702 702 702 702 701 700 699 699 697 696 695 694 693 692 691 689 688 688 687 687 687 687 686 685 684 683 682 681 679 678 677 675 674 672 670 668
684 684 684 683 682 681 679 678 677 677 676 677 677 677 678 678 678 678 678 679 679 680 680 681 681 682 683 684 685 687 688 689 691 692 693 694 696 697 698 699 699 700 700 701 700 700 700 700 700 700 700 700 699 699 698 697 696 695 694 693 692 691 690 689 688 687 686 686 685 685 684 683 682 681 679 678 677 676 675 673 672 670 669 666 664
683 683 682 682 681 680 679 677 676 675 675 675 675 676 676 677 677 678 679 680 680 681 682 682 683 684 685 686 688 689 690 692 693 694 694 696 697 698 699 700 700 700 700 700 700 699 699 698 698 698 698 697 697 696 695 695 694 693 692 691 691 690 689 688 686 685 685 684 683 683 682 681 679 678 677 676 674 673 671 670 668 667 665 662 659
682 681 681 681 680 680 679 678 677 676 675 675 676 676 676 677 678 679 680 681 681 682 683 684 685 686 687 688 690 691 692 693 694 694 695 696 697 698 698 699 699 699 699 699 699 698 698 697 697 697 696 695 695 694 693 693 692 691 690 689 688 688 687 686 685 684 683 683 682 681 680 678 677 675 674 672 671 669 668 666 664 663 661 658 655